TIME,DELAY(SENSOR),PRES,OXYGEN,RAWTEMP,T(OPTODE),TCPHASE,FLUOR,BETA(BETA700),BETA(BETA412),BETA(BETA440),CDOM,C(CSC),ED(ED411.90),ED(ED443.80),ED(ED489.40),ED(ED554.70),LU(LU412.20),LU(LU443.80),LU(LU489.40),LU(LU555.00),COMP,TILTX,TILTY,CHECK
1353016873,5806,856.5399780273438000,165.4122009277343800,393.8938903808594000,10.7887496948242190,38.4645500183105500,52,102,61,58,66,13498,2146959853,2147514422,2147284790,2147498377,2147090980,2146936777,2147695972,2147122934,1429,-1,8,53508
1353020469,5804,982.5999755859375000,175.9425964355468800,470.5067138671875000,8.4416999816894530,38.9718284606933600,52,99,59,59,67,13494,2146965010,2147515629,2147291254,2147513188,2147096768,2146925083,2147714276,2147119990,2539,-1,8,50802
1353024069,5805,1000.4799804687500000,191.9102935791015600,486.0526123046875000,7.9615588188171390,38.1666107177734400,52,102,60,59,67,13491,2146963309,2147515492,2147290624,2147516882,2147090944,2146931026,2147720045,2147123318,325,-1,8,15612
1353027669,5804,1003.5700073242188000,192.6571960449218800,487.9124145507812500,7.9040198326110840,38.1514015197753900,53,102,59,59,68,13485,2146964251,2147516589,2147291702,2147516973,2147089133,2146918326,2147712813,2147121033,3416,-1,8,56448
1353031269,5806,1010.5700073242188000,194.3881072998047000,489.5120849609375000,7.8545079231262210,38.0680809020996100,52,112,59,59,67,13487,2146961892,2147516854,2147294573,2147516480,2147092672,2146923666,2147713152,2147122989,407,-1,8,63154
1353034869,5809,1011.4099731445312000,194.2666015625000000,491.3526916503906000,7.7975220680236820,38.1076316833496100,52,98,59,59,67,13486,2146960137,2147516297,2147294774,2147518290,2147093348,2146927670,2147720694,2147119561,3572,-1,8,23373
1353038469,5804,1008.2299804687500000,196.5023040771484400,493.2070007324219000,7.7400870323181150,37.9980506896972660,53,102,60,59,66,13472,2146960109,2147517750,2147293952,2147515456,2147090404,2146920896,2147715776,2147121389,3513,-1,8,27555
1353042069,5809,1009.5399780273438000,196.8641967773437500,494.2392883300781000,7.7081041336059570,37.9935111999511700,52,98,58,58,67,13484,2146959680,2147516470,2147293010,2147520886,2147088978,2146924982,2147717092,2147118774,3577,-1,8,45419
1353045669,5807,1013.4600219726562000,196.0381011962890600,494.3030090332031000,7.7061290740966800,38.0468597412109400,52,99,59,59,67,13482,2146959533,2147515437,2147295798,2147516562,2147094308,2146925174,2147713170,2147121124,58,-1,8,27417
1353049269,5806,1011.7100219726562000,195.2855987548828000,495.6647949218750000,7.6639280319213870,38.1177711486816400,52,103,60,59,67,13480,2146959789,2147516708,2147293577,2147519405,2147094299,2146923072,2147715940,2147123245,3129,-1,8,25849
1353052869,5810,1017.0700073242188000,198.1712036132812500,496.0810852050781000,7.6510248184204100,37.9443397521972660,52,101,59,59,66,13482,2146959899,2147518994,2147291748,2147516114,2147092461,2146923547,2147720420,2147120118,25,-1,8,53500
1353056469,5805,1016.8400268554688000,197.6853942871093800,493.9325866699219000,7.7176079750061035,37.9369010925293000,52,101,60,59,66,13482,2146960676,2147518290,2147293275,2147517248,2147090660,2146924918,2147712877,2147120502,2956,-1,8,64314
1353060069,5805,1019.4799804687500000,195.8052978515625000,493.1624145507812500,7.7414689064025880,38.0415000915527340,53,106,59,59,67,13479,2146961142,2147517961,2147292013,2147519021,2147089444,2146925988,2147716635,2147121490,3301,-1,8,41812
1353063669,5805,1022.3499755859375000,194.3343048095703000,493.0940856933594000,7.7435841560363770,38.1336708068847660,53,102,60,59,67,13480,2146963858,2147519634,2147294162,2147517238,2147090340,2146928548,2147721179,2147120292,3383,-1,8,55330
1353067269,5807,1015.5200195312500000,196.4241943359375000,493.7583923339844000,7.7230038642883300,38.0133705139160160,52,104,59,59,66,13476,2146963812,2147517924,2147291062,2147516726,2147089883,2146930587,2147715949,2147122450,3214,-1,8,14678
1353070869,5806,1018.5999755859375000,197.8679962158203000,495.8671875000000000,7.6576547622680660,37.9593582153320300,52,99,60,59,66,13477,2146961782,2147515739,2147290368,2147519533,2147090349,2146927625,2147717933,2147121874,3319,-1,8,29290
1353074469,5805,1024.5899658203125000,196.5034942626953000,493.1830139160156000,7.7408289909362790,37.9982490539550800,52,104,59,58,68,13476,2146957878,2147518619,2147294345,2147516525,2147092873,2146924132,2147717238,2147121709,3326,-1,8,48866
1353078069,5805,1020.8499755859375000,194.5608062744140600,493.6340942382812500,7.7268562316894530,38.1285400390625000,52,103,58,58,67,13476,2146957878,2147520320,2147294189,2147518674,2147089325,2146928438,2147717568,2147120649,3222,-1,8,48385
1353081669,5806,1025.5400390625000000,195.5742950439453000,493.0017089843750000,7.7464480400085450,38.0534210205078100,52,101,60,58,66,13475,2146963081,2147515355,2147295076,2147518546,2147090715,2146922258,2147716397,2147121526,3365,-1,8,13971
1353085269,5810,1028.1800537109375000,194.7723999023437500,491.7829895019531000,7.7841958999633790,38.0836906433105500,52,101,58,57,66,13477,2146962212,2147517540,2147297051,2147519140,2147093357,2146928146,2147715209,2147120813,51,-1,8,9388
1353088869,5805,1030.0000000000000000,195.2153015136718800,491.8548889160156000,7.7819671630859375,38.0564994812011700,52,102,59,58,65,13474,2146962413,2147515602,2147294610,2147514816,2147092388,2146927981,2147715904,2147122386,3396,-1,8,6198
1353092469,5805,1028.3399658203125000,195.4763031005859400,492.2796020507812500,7.7688131332397460,38.0467987060546900,52,99,60,58,66,13474,2146961673,2147514934,2147292836,2147519131,2147089828,2146925366,2147718198,2147123712,3174,-1,8,43625
1353096069,5810,1022.8099975585938000,195.3379974365234400,493.4171142578125000,7.7335782051086430,38.0760116577148440,53,100,59,58,66,13475,2146963291,2147518710,2147294235,2147517412,2147089316,2146928045,2147715273,2147120155,3595,-1,8,24770
1353099669,5808,1022.2299804687500000,197.6502075195312500,495.0610961914062500,7.6826381683349610,37.9589881896972660,52,109,58,58,67,13474,2146961316,2147518080,2147290011,2147517540,2147095140,2146926729,2147713700,2147117248,391,-1,8,2639
1353103269,5803,1024.1600341796875000,197.5010986328125000,494.3203125000000000,7.7055931091308590,37.9556694030761700,52,99,59,59,65,13478,2146962432,2147514029,2147293440,2147513078,2147090048,2146927762,2147718217,2147119533,3435,-1,8,55759
1353106869,5804,1024.3000488281250000,197.7149047851562500,495.4960937500000000,7.6691551208496090,37.9628105163574200,53,100,58,59,67,13481,2146963254,2147520731,2147294052,2147516580,2147091913,2146925933,2147716205,2147118582,3282,-1,8,65034
1353110469,5807,1020.3400268554688000,197.9640960693359400,496.1496887207031000,7.6488962173461910,37.9583091735839840,52,102,60,58,66,13480,2146959844,2147520923,2147291465,2147517942,2147092214,2146923117,2147716608,2147120859,198,-1,8,53414
1353114069,5807,1022.4500122070312000,198.6596984863281200,496.6961059570312500,7.6319561004638670,37.9248390197753900,53,100,60,59,66,13479,2146962742,2147518646,2147294052,2147515474,2147094436,2146924946,2147719387,2147120795,394,0,8,28084
1353117669,5805,1024.7199707031250000,198.8836975097656200,497.0828857421875000,7.6199660301208500,37.9172210693359400,52,103,58,59,67,13482,2146958363,2147517714,2147295588,2147515913,2147088749,2146923894,2147714441,2147120420,3489,-1,8,9763
1353121269,5808,1025.7099609375000000,198.7339935302734400,497.1491088867187500,7.6179118156433105,37.9273681640625000,52,100,59,59,67,13473,2146964662,2147520045,2147291017,2147518829,2147090962,2146925622,2147716205,2147123300,190,-1,8,49945
1353124869,5807,1028.5799560546875000,198.8401031494140600,496.6459960937500000,7.6335120201110840,37.9127807617187500,51,101,60,58,67,13482,2146960484,2147516260,2147297920,2147519021,2147090989,2146924077,2147709540,2147118573,437,-1,8,42283
1353128469,5807,1030.3699951171875000,198.0834960937500000,495.6180114746094000,7.6653771400451660,37.9417991638183600,52,99,60,60,67,13480,2146961344,2147514989,2147294043,2147518226,2147091785,2146924278,2147716507,2147121764,305,-1,8,2643
1353132069,5806,1026.9799804687500000,196.9416961669922000,494.0739135742187500,7.7132291793823240,37.9856796264648440,52,102,59,59,67,13480,2146963748,2147515904,2147293312,2147516004,2147091072,2146929206,2147713782,2147118838,2809,-1,8,33510
1353135669,5805,1028.8100585937500000,197.6150054931640600,495.3140869140625000,7.6747970581054690,37.9656791687011700,52,100,59,58,67,13478,2146963181,2147519698,2147292470,2147516480,2147089636,2146924205,2147713517,2147121243,3364,-1,8,31467
1353139269,5804,1030.0000000000000000,197.3603973388672000,495.1206054687500000,7.6807937622070310,37.9781188964843750,53,100,60,59,66,13474,2146961289,2147516571,2147295643,2147518025,2147092169,2146925046,2147714523,2147120777,2926,-1,8,28974
1353142869,5807,1030.4799804687500000,197.1354064941406200,494.3269042968750000,7.7053890228271480,37.9782295227050800,53,102,60,58,67,13476,2146962468,2147517403,2147293293,2147519232,2147091584,2146925430,2147717248,2147121088,3286,-1,8,45088
1353146469,5805,1028.9699707031250000,196.2631072998047000,495.7833862304687500,7.6602492332458500,38.0589485168457000,53,101,60,59,66,13473,2146960539,2147516306,2147294774,2147517257,2147090761,2146929179,2147716827,2147119405,3448,-1,8,5845
1353150069,5806,1027.7800292968750000,196.3661041259765600,495.9318847656250000,7.6556491851806640,38.0542793273925800,53,100,58,58,67,13471,2146961517,2147513700,2147294921,2147518217,2147093211,2146927798,2147713654,2147116150,208,0,8,21258
1353153669,5808,1027.3900146484375000,195.9302978515625000,496.3677062988281000,7.6421370506286620,38.0900306701660160,56,101,59,59,66,13465,2146960722,2147514413,2147292955,2147519597,2147089508,2146926994,2147717504,2147120475,88,0,8,31338
1353157269,5808,1028.3100585937500000,196.2489013671875000,496.9869995117187500,7.6229381561279300,38.0804290771484400,52,101,59,59,67,13464,2146963520,2147516242,2147293650,2147516608,2147088146,2146924132,2147721362,2147121609,395,-1,8,46410
1353160854,5804,1027.9899902343750000,196.7221069335937500,496.4450073242187500,7.6397409439086910,38.0409889221191400,53,100,59,58,66,13466,2146963392,2147515885,2147293522,2147519872,2147090880,2146924525,2147715876,2147120960,105,-1,8,4129
